Retour au catalogue

SURCAL 159

ActifMilitaireLEO
NORAD 2872·PAYLOAD·🇺🇸 United States

Lancé May 31, 1967 depuis Vandenberg Space Force Base

Loading…

Prochains Passages (prochaines 24 heures)

TLE

FraisSource: Space-Track

Époque: Sep 14, 2026, 03:13 UTC

1 02872U 67053F   26257.13444394  .00000060  00000-0  77861-4 0  9993
2 02872  69.9745 169.2919 0007510 338.2376  21.8411 13.99619858 22654

Suivez SURCAL 159 en temps réel avec AllMySat

Download on the App Store